Change the Weather History Date:

Thursday, December 5, 2013

  Actual Average (KEVV) Record (KEVV)
Temperature  
Mean Temperature 42 °F 38 °F  
Max Temperature 57 °F 47 °F 70 °F (2001)
Min Temperature 26 °F 30 °F 11 °F (1937)
Degree Days  
Heating Degree Days 24 27  
Month to date heating degree days 130  
Since 1 July heating degree days 991  
Cooling Degree Days 0 0  
Month to date cooling degree days 0  
Year to date cooling degree days 1397  
Moisture  
Dew Point 34 °F    
Average Humidity 89    
Maximum Humidity 99    
Minimum Humidity 78    
Precipitation  
Precipitation 0.37 in 0.13 in 1.35 in (2011)
Month to date precipitation 0.65  
Year to date precipitation 42.20  
Snow  
Snow 0.00 in 0.00 in 6.60 in (1984)
Month to date snowfall 0.2  
Since 1 July snowfall 0.5  
Snow Depth -    
Sea Level Pressure  
Sea Level Pressure 30.08 in    
Wind  
Wind Speed 13 mph (NW)    
Max Wind Speed 21 mph    
Max Gust Speed 28 mph    
Visibility 7 miles    
Events Rain , Snow    
T = Trace of Precipitation, MM = Missing Value Source: NWS Daily Summary

Daily Weather History Graph

Daily Weather History Graph

Search for Another Location

Airport or City:

Trip Planner

Search our weather history database for the weather conditions in past years. The results will help you decide how hot, cold, wet, or windy it might be!

Date:

Astronomy

Dec. 05, 2013 Rise Set
Actual Time 6:53 AM CST 4:32 PM CST
Civil Twilight 6:24 AM CST 5:01 PM CST
Nautical Twilight 5:51 AM CST 5:34 PM CST
Astronomical Twilight 5:19 AM CST 6:06 PM CST
Moon 9:15 AM CST (12/5) 7:51 PM CST (12/5)
Length of Visible Light 10h 37m
Length of Day
9h 38m
Waxing Crescent, 11% of the Moon is Illuminated
Dec 5
Waxing Crescent
Dec 9
First Quarter
Dec 17
Full
Dec 25
Last Quarter
Jan 1
New

Hourly Weather History & Observations

Time (CST) Temp. Windchill Dew Point Humidity Pressure Visibility Wind Dir Wind Speed Gust Speed Precip Events Conditions
12:15 AM 57.0 °F - 50.2 °F 78% 29.81 in 10.0 mi WNW 20.7 mph 27.6 mph N/A   Overcast
12:35 AM 54.9 °F - 49.1 °F 81% 29.81 in 10.0 mi WNW 12.7 mph 17.3 mph N/A   Scattered Clouds
12:55 AM 54.0 °F - 48.2 °F 81% 29.83 in 7.0 mi NW 11.5 mph - N/A   Mostly Cloudy
1:15 AM 52.3 °F - 46.8 °F 81% 29.83 in 7.0 mi NW 11.5 mph - N/A   Mostly Cloudy
1:35 AM 51.4 °F - 46.4 °F 83% 29.84 in 10.0 mi NW 11.5 mph 18.4 mph N/A   Mostly Cloudy
1:55 AM 50.5 °F - 45.1 °F 82% 29.84 in 10.0 mi NW 12.7 mph 17.3 mph N/A   Mostly Cloudy
2:15 AM 50.0 °F - 44.4 °F 81% 29.84 in 10.0 mi NW 10.4 mph - N/A   Scattered Clouds
2:35 AM 49.6 °F - 44.6 °F 83% 29.85 in 10.0 mi WNW 9.2 mph - N/A   Mostly Cloudy
2:55 AM 49.5 °F - 44.1 °F 82% 29.87 in 10.0 mi WNW 10.4 mph 17.3 mph N/A   Overcast
3:15 AM 48.9 °F - 42.8 °F 79% 29.89 in 10.0 mi West 12.7 mph - N/A   Overcast
3:35 AM 48.2 °F - 42.4 °F 80% 29.89 in 10.0 mi WNW 11.5 mph - N/A   Overcast
3:55 AM 47.8 °F - 42.4 °F 82% 29.90 in 10.0 mi WNW 11.5 mph - N/A   Overcast
4:15 AM 47.7 °F - 42.4 °F 82% 29.91 in 10.0 mi WNW 11.5 mph - N/A   Overcast
4:35 AM 47.3 °F - 42.1 °F 82% 29.93 in 10.0 mi WNW 12.7 mph - N/A   Overcast
4:55 AM 46.2 °F 39.3 °F 39.9 °F 79% 29.94 in 10.0 mi NW 17.3 mph 24.2 mph N/A   Overcast
5:15 AM 45.1 °F 37.9 °F 39.0 °F 79% 29.95 in 10.0 mi WNW 17.3 mph 21.9 mph N/A   Overcast
5:35 AM 44.6 °F 37.4 °F 38.3 °F 79% 29.96 in 10.0 mi NW 16.1 mph 23.0 mph N/A   Overcast
5:55 AM 44.1 °F 36.5 °F 38.5 °F 81% 29.97 in 10.0 mi WNW 17.3 mph 23.0 mph N/A   Overcast
6:15 AM 42.6 °F 35.9 °F 37.0 °F 81% 29.97 in 10.0 mi NW 12.7 mph 19.6 mph N/A   Overcast
6:35 AM 41.0 °F 33.9 °F 34.9 °F 79% 29.98 in 10.0 mi WNW 12.7 mph 25.3 mph N/A   Overcast
6:55 AM 40.5 °F 32.5 °F 34.2 °F 78% 30.00 in 10.0 mi WNW 15.0 mph 18.4 mph N/A   Overcast
7:15 AM 39.7 °F 31.2 °F 33.8 °F 79% 30.01 in 10.0 mi WNW 16.1 mph 19.6 mph N/A   Overcast
7:35 AM 39.4 °F 31.4 °F 34.0 °F 81% 30.03 in 10.0 mi WNW 13.8 mph 18.4 mph N/A   Overcast
7:55 AM 38.8 °F 29.4 °F 33.4 °F 81% 30.04 in 7.0 mi NW 18.4 mph 23.0 mph N/A   Overcast
8:15 AM 38.5 °F 28.9 °F 33.3 °F 81% 30.06 in 7.0 mi NW 18.4 mph 23.0 mph N/A   Overcast
8:35 AM 37.4 °F 28.5 °F 32.0 °F 81% 30.07 in 10.0 mi NW 15.0 mph - N/A   Light Drizzle
8:55 AM 37.2 °F 27.6 °F 32.0 °F 81% 30.07 in 7.0 mi NNW 17.3 mph - N/A Rain Light Rain
9:15 AM 36.7 °F 27.2 °F 32.0 °F 83% 30.10 in 10.0 mi NW 16.1 mph - N/A   Overcast
9:35 AM 37.4 °F 29.3 °F 32.4 °F 82% 30.11 in 10.0 mi NW 12.7 mph - N/A   Overcast
9:55 AM 36.5 °F 27.4 °F 32.0 °F 84% 30.12 in 10.0 mi NW 15.0 mph - N/A Rain Light Rain
10:15 AM 35.8 °F 28.8 °F 32.7 °F 89% 30.11 in 7.0 mi NW 9.2 mph - N/A   Light Drizzle
10:35 AM 35.8 °F 27.8 °F 32.5 °F 88% 30.12 in 10.0 mi NNW 11.5 mph - N/A   Overcast
10:55 AM 35.8 °F 29.4 °F 32.2 °F 87% 30.11 in 7.0 mi NNW 8.1 mph - N/A Rain Light Rain
11:15 AM 36.0 °F 28.5 °F 32.0 °F 86% 30.10 in 10.0 mi NW 10.4 mph - N/A   Overcast
11:35 AM 36.1 °F 28.2 °F 32.0 °F 85% 30.10 in 10.0 mi NW 11.5 mph - N/A   Overcast
11:55 AM 35.6 °F 26.2 °F 31.8 °F 86% 30.09 in 10.0 mi NW 15.0 mph - N/A   Light Drizzle
12:15 PM 35.2 °F 27.1 °F 31.6 °F 87% 30.07 in 10.0 mi NNW 11.5 mph - N/A   Overcast
12:35 PM 34.7 °F 25.1 °F 31.8 °F 89% 30.10 in 7.0 mi NW 15.0 mph - N/A Rain Rain
12:55 PM 34.2 °F 24.8 °F 32.0 °F 92% 30.11 in 5.0 mi NW 13.8 mph - 0.01 in Rain Rain
1:15 PM 33.3 °F 25.1 °F 32.0 °F 95% 30.12 in 3.0 mi NW 10.4 mph - 0.01 in Rain Light Rain
1:35 PM 33.3 °F 25.7 °F 32.4 °F 96% 30.14 in 1.2 mi WNW 9.2 mph - 0.08 in Rain Heavy Rain
1:55 PM 32.9 °F 25.9 °F 32.2 °F 97% 30.13 in 1.5 mi WNW 8.1 mph - 0.13 in Rain Light Rain
2:15 PM 32.7 °F 25.0 °F 32.2 °F 98% 30.13 in 2.0 mi WNW 9.2 mph - 0.04 in Rain Rain
2:35 PM 32.5 °F 25.5 °F 32.0 °F 98% 30.12 in 7.0 mi WNW 8.1 mph - 0.06 in Rain Rain
2:55 PM 32.9 °F 26.7 °F 32.0 °F 96% 30.14 in 10.0 mi WNW 6.9 mph - 0.06 in   Light Drizzle
3:15 PM 32.9 °F 24.7 °F 32.0 °F 96% 30.14 in 10.0 mi WNW 10.4 mph - N/A Rain Light Rain
3:35 PM 32.4 °F 24.0 °F 31.3 °F 96% 30.14 in 10.0 mi WNW 10.4 mph - N/A Rain Rain
3:55 PM 32.2 °F 25.0 °F 31.3 °F 96% 30.14 in 10.0 mi WNW 8.1 mph - N/A Rain Rain
4:15 PM 32.4 °F 25.3 °F 32.0 °F 99% 30.14 in 7.0 mi WNW 8.1 mph - N/A Rain Rain
4:35 PM 32.0 °F 24.8 °F 31.8 °F 99% 30.14 in 7.0 mi WNW 8.1 mph - N/A Rain Light Rain
4:55 PM 32.0 °F 24.8 °F 31.5 °F 98% 30.14 in 7.0 mi WNW 8.1 mph - N/A Rain Light Rain
5:15 PM 32.0 °F 26.4 °F 31.6 °F 99% 30.15 in 5.0 mi WNW 5.8 mph - 0.01 in Rain Rain
5:35 PM 32.0 °F 25.6 °F 31.6 °F 99% 30.18 in 5.0 mi WNW 6.9 mph - 0.01 in Rain Light Rain
5:55 PM 32.0 °F 24.8 °F 31.5 °F 98% 30.19 in 4.0 mi WNW 8.1 mph - 0.02 in Rain Light Rain
6:15 PM 32.0 °F 25.6 °F 31.1 °F 96% 30.23 in 5.0 mi WNW 6.9 mph - N/A Rain Rain
6:35 PM 31.6 °F 25.1 °F 31.1 °F 98% 30.20 in 3.0 mi WNW 6.9 mph - 0.01 in Snow Light Snow
7:00 PM 30.2 °F 21.9 °F 30.0 °F 99% 30.20 in 4.0 mi WNW 9.2 mph - N/A Snow Snow
7:15 PM 30.2 °F 21.3 °F 29.3 °F 96% 30.18 in 7.0 mi WNW 10.4 mph - N/A Rain Light Freezing Rain
7:35 PM 29.5 °F 21.1 °F 28.4 °F 96% 30.19 in 10.0 mi WNW 9.2 mph - N/A   Light Freezing Rain
7:55 PM 29.5 °F 21.1 °F 28.6 °F 96% 30.22 in 5.0 mi WNW 9.2 mph - N/A Rain Light Freezing Rain
8:15 PM 29.5 °F 21.8 °F 28.6 °F 96% 30.21 in 5.0 mi WNW 8.1 mph - N/A   Light Freezing Rain
8:35 PM 28.9 °F 21.1 °F 28.0 °F 96% 30.21 in 5.0 mi WNW 8.1 mph - N/A Snow Light Snow
8:55 PM 28.4 °F 20.4 °F 27.5 °F 96% 30.22 in 5.0 mi WNW 8.1 mph - 0.01 in Snow Light Snow
9:15 PM 28.2 °F 21.0 °F 27.1 °F 96% 30.25 in 3.0 mi WNW 6.9 mph - 0.01 in Snow Light Snow
9:35 PM 27.7 °F 19.6 °F 27.0 °F 97% 30.20 in 2.0 mi WNW 8.1 mph - 0.02 in Snow Light Snow
9:55 PM 27.5 °F 20.2 °F 27.1 °F 99% 30.23 in 4.0 mi WNW 6.9 mph - 0.04 in   Overcast
10:15 PM 27.3 °F 19.1 °F 26.6 °F 97% 30.24 in 3.0 mi WNW 8.1 mph - 0.01 in Snow Light Snow
10:35 PM 27.1 °F 19.7 °F 26.4 °F 97% 30.24 in 4.0 mi WNW 6.9 mph - 0.03 in Snow Light Snow
10:55 PM 27.5 °F 22.2 °F 26.6 °F 96% 30.23 in 4.0 mi WNW 4.6 mph - 0.06 in Snow Light Snow
11:15 PM 26.6 °F 18.2 °F 25.9 °F 97% 30.26 in 4.0 mi WNW 8.1 mph - 0.01 in Snow Light Snow
11:35 PM 26.4 °F 17.3 °F 25.5 °F 96% 30.23 in 3.0 mi WNW 9.2 mph - 0.02 in Snow Light Snow
11:55 PM 26.2 °F 17.8 °F 25.5 °F 97% 30.21 in 1.5 mi WNW 8.1 mph - 0.03 in Snow Light Snow